DW2935 Weather Reports


Display with metric or nautical units.
time (UTC)temp
F
wind
direction
speed
MPH
gust
MPH
rain 1hr
in
rain 24hr
in
rain mn
in
humidity
%
barometer
mb
20260507010236 58 0.0 0.0 0.07 0.28 0.28 92 1005.1
20260507005720 58 0.0 0.0 0.07 0.28 0.28 92 1005.1
20260507005438 58 0.0 0.0 0.06 0.27 0.27 92 1005.0
20260507004708 59 0.0 0.0 0.05 0.26 0.27 92 1004.9
20260507004148 59 0.0 0.0 0.02 0.23 0.23 93 1004.8
20260507003637 59 0.0 0.0 0.01 0.22 0.22 93 1004.5
20260507003129 59 0.0 0.0 0.01 0.22 0.22 93 1004.4
20260507002622 59 0.0 0.0 0.01 0.22 0.22 93 1004.4
20260507002347 59 0.0 0.0 0.01 0.22 0.22 93 1004.3
20260507001610 59 0.0 0.0 0.01 0.22 0.22 93 1004.3
20260507001100 59 0.0 0.0 0.01 0.22 0.22 93 1004.3
20260507000836 59 0.0 0.0 0.00 0.21 0.21 92 1004.1
20260507000046 59 0.0 0.0 0.00 0.21 0.21 92 1004.1
20260506235532 59 0.0 0.0 0.00 0.21 0.21 92 1004.1
20260506235004 59 0.0 0.0 0.00 0.21 0.21 92 1004.1
20260506234501 59 0.0 0.0 0.00 0.21 0.21 92 1004.0
20260506234004 59 0.0 0.0 0.00 0.21 0.21 92 1004.1
20260506233500 59 0.0 0.0 0.00 0.22 0.21 92 1004.0
20260506232947 59 0.0 0.0 0.00 0.22 0.21 92 1004.0
20260506232434 59 0.0 0.0 0.00 0.22 0.21 92 1003.8
20260506232409 59 0.0 0.0 0.00 0.23 0.21 92 1003.8
20260506231406 60 0.0 0.0 0.00 0.24 0.21 92 1003.8
20260506230905 60 0.0 0.0 0.00 0.24 0.21 92 1004.0
20260506230404 60 0.0 0.0 0.00 0.25 0.21 92 1003.8
20260506225857 60 0.0 0.0 0.00 0.25 0.21 92 1004.0
20260506225624 60 0.0 0.0 0.00 0.25 0.21 92 1003.8
20260506224847 60 0.0 0.0 0.00 0.25 0.21 92 1003.8
20260506224342 60 0.0 0.0 0.00 0.25 0.21 92 1004.0
20260506223835 60 0.0 0.0 0.00 0.25 0.21 92 1004.1
20260506223322 60 0.0 0.0 0.00 0.25 0.21 92 1004.0
20260506222803 60 0.0 0.0 0.00 0.25 0.21 92 1004.2
20260506222305 60 0.0 0.0 0.00 0.25 0.21 92 1004.0
20260506221804 60 0.0 0.0 0.00 0.25 0.21 93 1004.0
20260506221245 60 0.0 0.0 0.00 0.25 0.21 92 1004.2
20260506220744 60 0.0 0.0 0.00 0.25 0.21 92 1004.2
20260506220237 60 0.0 0.0 0.00 0.25 0.21 93 1004.2
20260506215723 61 0.0 0.0 0.01 0.25 0.21 93 1004.2
20260506215216 61 0.0 0.0 0.01 0.25 0.21 93 1004.3
20260506214718 61 0.0 0.0 0.01 0.25 0.21 93 1004.2
20260506214440 61 0.0 0.0 0.01 0.25 0.21 93 1004.2
20260506213705 61 0.0 0.0 0.01 0.25 0.21 93 1004.2
20260506213145 61 0.0 0.0 0.01 0.25 0.21 93 1004.2
20260506212627 61 0.0 0.0 0.01 0.25 0.21 93 1004.3
20260506212114 61 0.0 0.0 0.01 0.25 0.21 93 1004.4
20260506211614 61 0.0 0.0 0.01 0.25 0.21 93 1004.4
20260506211105 61 0.0 0.0 0.01 0.25 0.21 93 1004.4
20260506210837 61 0.0 0.0 0.02 0.25 0.21 93 1004.5
20260506210336 61 0.0 0.0 0.02 0.25 0.21 93 1004.4
20260506205819 61 0.0 0.0 0.02 0.24 0.20 93 1004.4
20260506205039 61 0.0 0.0 0.03 0.24 0.20 93 1004.5
20260506204540 61 0.0 0.0 0.03 0.24 0.20 93 1004.5
20260506204032 61 0.0 0.0 0.03 0.24 0.20 93 1004.5
20260506203530 61 0.0 0.0 0.04 0.24 0.20 93 1004.6
20260506203023 61 0.0 0.0 0.05 0.24 0.20 93 1004.6
20260506202514 61 0.0 0.0 0.06 0.24 0.20 93 1004.8
20260506202006 61 0.0 0.0 0.06 0.24 0.20 93 1004.8
20260506201505 61 0.0 0.0 0.06 0.24 0.20 93 1004.7
20260506201227 61 0.0 0.0 0.07 0.23 0.19 93 1004.8
20260506200952 61 0.0 0.0 0.07 0.24 0.20 93 1004.9
20260506195936 61 0.0 0.0 0.07 0.23 0.19 93 1004.9
20260506195434 60 0.0 0.0 0.06 0.22 0.18 93 1005.0
20260506194930 60 0.0 0.0 0.05 0.21 0.17 93 1005.1
20260506194638 60 0.0 0.0 0.06 0.21 0.17 93 1005.0
20260506193903 60 0.0 0.0 0.05 0.20 0.17 93 1005.1
20260506193403 60 0.0 0.0 0.05 0.19 0.16 92 1005.1
20260506192851 60 0.0 0.0 0.05 0.19 0.15 93 1005.2
20260506192345 60 0.0 0.0 0.04 0.18 0.14 93 1005.2
20260506191834 60 0.0 0.0 0.05 0.18 0.14 93 1005.2
20260506191330 60 0.0 0.0 0.05 0.18 0.14 92 1005.0
20260506190822 60 0.0 0.0 0.05 0.17 0.13 92 1005.3
20260506190314 60 0.0 0.0 0.05 0.16 0.12 92 1005.5
20260506185809 60 0.0 0.0 0.06 0.16 0.12 92 1005.7
20260506185534 60 0.0 0.0 0.07 0.16 0.12 92 1005.8
20260506184755 60 0.0 0.0 0.07 0.15 0.11 92 1005.7
20260506184248 61 0.0 0.0 0.08 0.15 0.11 92 1006.0
20260506184013 61 0.0 0.0 0.07 0.14 0.10 92 1006.1
20260506183214 61 0.0 0.0 0.08 0.14 0.10 92 1006.0
20260506182711 61 0.0 0.0 0.09 0.14 0.10 91 1006.0
20260506182203 61 0.0 0.0 0.09 0.14 0.10 91 1006.0
20260506181705 61 0.0 0.0 0.09 0.13 0.09 91 1006.2
20260506181154 61 0.0 0.0 0.09 0.13 0.09 91 1006.3
20260506180652 61 0.0 0.0 0.08 0.12 0.08 90 1006.5
20260506180148 61 0.0 0.0 0.07 0.11 0.07 89 1006.5
20260506175638 61 0.0 0.0 0.06 0.10 0.06 89 1006.5
20260506175128 61 0.0 0.0 0.05 0.09 0.05 87 1006.5
20260506174618 62 0.0 0.0 0.04 0.08 0.04 87 1006.6
20260506174107 62 0.0 0.0 0.03 0.07 0.03 87 1006.6
20260506173606 62 0.0 0.0 0.02 0.06 0.03 85 1006.5
20260506173056 63 0.0 0.0 0.02 0.06 0.02 84 1006.5
20260506172548 64 0.0 0.0 0.01 0.05 0.01 82 1006.6
20260506172307 64 0.0 0.0 0.01 0.05 0.01 80 1006.5
20260506171520 65 0.0 0.0 0.00 0.04 0.00 79 1006.4
20260506171014 65 0.0 0.0 0.00 0.04 0.00 76 1006.4
20260506170505 66 0.0 0.0 0.00 0.04 0.00 74 1006.2
20260506170007 66 0.0 0.0 0.00 0.04 0.00 72 1006.3
20260506165733 67 0.0 0.0 0.00 0.04 0.00 73 1006.4
20260506164956 67 0.0 0.0 0.00 0.04 0.00 71 1006.3
20260506164452 67 0.0 0.0 0.00 0.04 0.00 72 1006.4
20260506163946 67 0.0 0.0 0.00 0.04 0.00 70 1006.5
20260506163443 67 0.0 0.0 0.00 0.04 0.00 70 1006.5
20260506162919 67 0.0 0.0 0.00 0.04 0.00 73 1006.5
20260506162417 67 0.0 0.0 0.00 0.04 0.00 73 1006.6
20260506161906 67 0.0 0.0 0.00 0.04 0.00 75 1006.6
20260506161404 66 0.0 0.0 0.00 0.04 0.00 75 1006.7
20260506161135 66 0.0 0.0 0.00 0.04 0.00 78 1006.8
20260506160352 66 0.0 0.0 0.00 0.04 0.00 77 1006.9
20260506155845 65 0.0 0.0 0.00 0.04 0.00 78 1007.2
20260506155340 65 0.0 0.0 0.00 0.04 0.00 77 1007.2
20260506154831 65 0.0 0.0 0.00 0.04 0.00 78 1007.4
20260506154325 65 0.0 0.0 0.00 0.04 0.00 76 1007.7
20260506154051 65 0.0 0.0 0.00 0.04 0.00 75 1007.8
20260506153257 65 0.0 0.0 0.00 0.04 0.00 76 1007.8
20260506152756 65 0.0 0.0 0.00 0.04 0.00 75 1007.8
20260506152525 65 0.0 0.0 0.00 0.04 0.00 75 1007.8
20260506151746 65 0.0 0.0 0.00 0.04 0.00 74 1007.8
20260506151238 65 0.0 0.0 0.00 0.04 0.00 74 1007.8
20260506150734 65 0.0 0.0 0.00 0.04 0.00 74 1007.9
20260506150221 65 0.0 0.0 0.00 0.04 0.00 73 1007.8
20260506145720 65 0.0 0.0 0.00 0.04 0.00 73 1007.7
20260506145204 65 0.0 0.0 0.00 0.04 0.00 75 1007.7
20260506144705 65 0.0 0.0 0.00 0.04 0.00 75 1007.6
20260506144155 65 0.0 0.0 0.00 0.04 0.00 75 1007.9
20260506143647 64 0.0 0.0 0.00 0.04 0.00 75 1007.9
20260506143410 64 0.0 0.0 0.00 0.04 0.00 75 1007.7
20260506142904 64 0.0 0.0 0.00 0.04 0.00 76 1007.7
20260506142127 64 0.0 0.0 0.00 0.04 0.00 77 1007.8
20260506141610 64 0.0 0.0 0.00 0.04 0.00 77 1007.7
20260506141101 63 0.0 0.0 0.00 0.04 0.00 79 1007.8
20260506140555 63 0.0 0.0 0.00 0.04 0.00 78 1007.8
20260506140055 62 0.0 0.0 0.00 0.04 0.00 80 1007.6
20260506135547 62 0.0 0.0 0.00 0.04 0.00 82 1007.6
20260506135039 61 0.0 0.0 0.00 0.04 0.00 80 1007.7
20260506134533 61 0.0 0.0 0.00 0.04 0.00 80 1007.9
20260506134030 61 0.0 0.0 0.00 0.04 0.00 80 1008.0
20260506133518 61 0.0 0.0 0.00 0.04 0.00 80 1008.1
20260506133004 61 0.0 0.0 0.00 0.04 0.00 80 1008.3
20260506132504 61 0.0 0.0 0.00 0.04 0.00 80 1008.2
20260506131953 61 0.0 0.0 0.00 0.04 0.00 80 1008.2
20260506131447 60 0.0 0.0 0.00 0.04 0.00 80 1008.3
20260506130935 60 0.0 0.0 0.00 0.04 0.00 80 1008.2
20260506130433 60 0.0 0.0 0.00 0.04 0.00 80 1008.1
20260506125927 60 0.0 0.0 0.00 0.04 0.00 81 1008.1
20260506125407 60 0.0 0.0 0.00 0.04 0.00 81 1008.3
20260506124907 60 0.0 0.0 0.00 0.04 0.00 81 1008.3
20260506124355 60 0.0 0.0 0.00 0.04 0.00 82 1008.3
20260506123852 60 0.0 0.0 0.00 0.04 0.00 82 1008.0
20260506123345 59 0.0 0.0 0.00 0.04 0.00 82 1008.2
20260506122840 59 0.0 0.0 0.00 0.04 0.00 83 1008.2
20260506122333 59 0.0 0.0 0.00 0.04 0.00 83 1008.1
20260506122054 59 0.0 0.0 0.00 0.04 0.00 83 1008.2
20260506121317 59 0.0 0.0 0.00 0.04 0.00 83 1008.2
20260506120814 58 0.0 0.0 0.00 0.04 0.00 84 1008.3
20260506120301 58 0.0 0.0 0.00 0.04 0.00 85 1008.4
20260506115757 58 0.0 0.0 0.00 0.04 0.00 85 1008.5
20260506115245 58 0.0 0.0 0.00 0.04 0.00 85 1008.5
20260506114739 58 0.0 0.0 0.00 0.04 0.00 85 1008.3
20260506114224 57 0.0 0.0 0.00 0.04 0.00 85 1008.3
20260506113725 57 0.0 0.0 0.00 0.04 0.00 85 1008.4
20260506113215 57 0.0 0.0 0.00 0.04 0.00 85 1008.5
20260506112713 57 0.0 0.0 0.00 0.04 0.00 85 1008.6
20260506112200 56 0.0 0.0 0.00 0.04 0.00 85 1008.5
20260506111655 56 0.0 0.0 0.00 0.04 0.00 84 1008.6
20260506111144 56 0.0 0.0 0.00 0.04 0.00 84 1008.5
20260506110640 56 0.0 0.0 0.00 0.04 0.00 84 1008.3
20260506110107 56 0.0 0.0 0.00 0.04 0.00 84 1008.6
20260506105604 56 0.0 0.0 0.00 0.04 0.00 83 1008.6
20260506105103 56 0.0 0.0 0.00 0.04 0.00 83 1008.6
20260506104605 56 0.0 0.0 0.00 0.04 0.00 83 1008.9
20260506104331 56 0.0 0.0 0.00 0.04 0.00 83 1008.9
20260506103601 56 0.0 0.0 0.00 0.04 0.00 83 1008.6
20260506103052 56 0.0 0.0 0.00 0.04 0.00 82 1008.9
20260506102547 56 0.0 0.0 0.00 0.04 0.00 82 1009.0
20260506102024 56 0.0 0.0 0.00 0.04 0.00 82 1008.8
20260506101516 56 0.0 0.0 0.00 0.04 0.00 81 1008.4
20260506101238 56 0.0 0.0 0.00 0.04 0.00 81 1008.4
20260506101002 56 0.0 0.0 0.00 0.04 0.00 81 1008.5
20260506100003 56 0.0 0.0 0.00 0.04 0.00 80 1008.5
20260506095503 56 0.0 0.0 0.00 0.04 0.00 81 1008.4
20260506094954 56 0.0 0.0 0.00 0.04 0.00 81 1008.2
20260506094431 56 0.0 0.0 0.00 0.04 0.00 81 1008.1
20260506093928 56 0.0 0.0 0.00 0.04 0.00 80 1008.3
20260506093404 57 0.0 0.0 0.00 0.04 0.00 80 1008.4
20260506092901 57 0.0 0.0 0.00 0.04 0.00 79 1008.3
20260506092622 57 0.0 0.0 0.00 0.04 0.00 80 1008.1
20260506091801 57 0.0 0.0 0.00 0.04 0.00 78 1008.2
20260506091212 57 0.0 0.0 0.00 0.04 0.00 78 1008.2
20260506090708 58 0.0 0.0 0.00 0.04 0.00 77 1008.3
20260506090202 58 0.0 0.0 0.00 0.04 0.00 77 1008.3
20260506085703 58 0.0 0.0 0.00 0.04 0.00 77 1008.4
20260506085432 59 0.0 0.0 0.00 0.04 0.00 77 1008.3
20260506084927 59 0.0 0.0 0.00 0.04 0.00 76 1008.3
20260506084153 59 0.0 0.0 0.00 0.04 0.00 76 1008.4
20260506083622 60 0.0 0.0 0.00 0.04 0.00 75 1008.3
20260506083120 60 0.0 0.0 0.00 0.04 0.00 75 1008.4
20260506082612 60 0.0 0.0 0.00 0.04 0.00 74 1008.5
20260506082058 60 0.0 0.0 0.00 0.04 0.00 74 1008.4
20260506081556 60 0.0 0.0 0.00 0.04 0.00 74 1008.4
20260506081032 60 0.0 0.0 0.00 0.04 0.00 74 1008.4
20260506080513 60 0.0 0.0 0.00 0.04 0.00 74 1008.2
20260506073359 61 0.0 0.0 0.00 0.04 0.00 73 1008.3
20260506072851 61 0.0 0.0 0.00 0.04 0.00 73 1008.3
20260506072351 61 0.0 0.0 0.00 0.04 0.00 73 1008.2
20260506071801 61 0.0 0.0 0.00 0.04 0.00 73 1008.2
20260506071259 61 0.0 0.0 0.00 0.04 0.00 73 1008.3
20260506070739 61 0.0 0.0 0.00 0.04 0.00 73 1008.4
20260506070236 61 0.0 0.0 0.00 0.04 0.00 73 1008.4
20260506062148 61 0.0 0.0 0.00 0.04 0.00 73 1008.0
20260506061637 61 0.0 0.0 0.00 0.04 0.00 73 1007.9
20260506061129 61 0.0 0.0 0.00 0.04 0.00 73 1007.9
20260506060622 61 0.0 0.0 0.00 0.04 0.00 73 1007.8
20260506060105 61 0.0 0.0 0.00 0.04 0.00 74 1007.9
20260506050452 62 0.0 0.0 0.00 0.04 0.00 76 1008.0
20260506044901 61 0.0 0.0 0.00 0.04 0.00 77 1007.9
20260506044323 61 0.0 0.0 0.00 0.04 0.00 78 1008.0
20260506043802 61 0.0 0.0 0.00 0.04 0.00 79 1008.0
20260506043301 61 0.0 0.0 0.00 0.04 0.00 80 1008.0
20260506042759 60 0.0 0.0 0.00 0.04 0.00 81 1008.0
20260506042249 60 0.0 0.0 0.00 0.04 0.00 82 1008.1
20260506041739 60 0.0 0.0 0.00 0.04 0.00 83 1008.2
20260506041222 60 0.0 0.0 0.00 0.04 0.00 83 1008.0
20260506040709 60 0.0 0.0 0.00 0.04 0.00 84 1008.0
20260506040201 60 0.0 0.0 0.00 0.04 0.00 85 1007.9
20260506035634 60 0.0 0.0 0.00 0.04 0.04 85 1007.9
20260506035128 60 0.0 0.0 0.00 0.04 0.04 86 1007.7
20260506034625 60 0.0 0.0 0.00 0.04 0.04 86 1008.0
20260506034119 60 0.0 0.0 0.00 0.04 0.04 87 1008.0
20260506033620 59 0.0 0.0 0.00 0.04 0.04 87 1007.9
20260506033110 59 0.0 0.0 0.00 0.04 0.04 87 1007.8
20260506032602 59 0.0 0.0 0.00 0.04 0.04 86 1008.1
20260506032102 60 0.0 0.0 0.00 0.04 0.04 86 1008.1
20260506031558 60 0.0 0.0 0.00 0.04 0.04 86 1008.1
20260506031048 60 0.0 0.0 0.00 0.04 0.04 85 1008.1
20260506030525 60 0.0 0.0 0.00 0.04 0.04 85 1008.1
20260506030003 60 0.0 0.0 0.00 0.04 0.04 85 1008.1
20260506025442 60 0.0 0.0 0.00 0.04 0.04 84 1008.1
20260506024937 60 0.0 0.0 0.00 0.04 0.04 84 1007.9
20260506024430 60 0.0 0.0 0.00 0.04 0.04 84 1007.8
20260506023915 60 0.0 0.0 0.00 0.04 0.04 83 1008.1
20260506023413 61 0.0 0.0 0.00 0.04 0.04 83 1008.0
20260506022904 61 0.0 0.0 0.00 0.04 0.04 83 1007.9
20260506022356 61 0.0 0.0 0.00 0.04 0.04 83 1007.8
20260506021858 61 0.0 0.0 0.00 0.04 0.04 83 1007.8
20260506021332 61 0.0 0.0 0.00 0.04 0.04 83 1007.7
20260506020812 61 0.0 0.0 0.00 0.04 0.04 84 1007.6
20260506020307 61 0.0 0.0 0.00 0.04 0.04 84 1007.6
20260506015756 61 0.0 0.0 0.00 0.04 0.04 84 1007.7
20260506015247 61 0.0 0.0 0.00 0.04 0.04 84 1007.8
20260506014737 61 0.0 0.0 0.00 0.04 0.04 84 1008.2
20260506014217 61 0.0 0.0 0.00 0.04 0.04 84 1008.1
20260506013658 61 0.0 0.0 0.00 0.04 0.04 84 1008.0
20260506013405 61 0.0 0.0 0.00 0.04 0.04 84 1008.2
20260506012611 62 0.0 0.0 0.00 0.04 0.04 84 1008.1
20260506012340 62 0.0 0.0 0.00 0.04 0.04 84 1008.1
20260506011610 62 0.0 0.0 0.00 0.04 0.04 84 1008.1
20260506011101 62 0.0 0.0 0.00 0.04 0.04 84 1007.9